www.pogodaiklimat.ru

Погода и климат >> Архив погоды >> Россия >> Амурская область >> Экимчан


АРХИВ ПОГОДЫ в Экимчане

Время (UTC), дата Ветер
(напр.,м/с)
 
Видим.   Явления Облачность Т
(С)
Тd
(С)
f
(%)
Тe
(С)
Тes
(С)
Комфортность P
(гПа)
Po
(гПа)
Тmin
(С)
Tmax
(С)
R
(мм)
R24
(мм)
S
(см)
15 13.08 В 1 50 км 10/0
[As op]
+13.8 +12.9 94 +14 +14 1008.6 946.4
18 13.08 В 1 50 км 10/0
[Cs]
+12.1 +11.3 95 +12 +12 1008.7 946.2
21 13.08 В 1 200 м туман ?/? +11.6 +10.8 95 +11 +11 1008.7 946.0
00 14.08 В 2 10 км слаб. ливневой дождь {туман} 10/10 200 м
[Cb cap]
+13.3 +12.4 94 +12 +12 1008.0 945.7 +11.1 3
03 14.08 СВ 1 50 км {ливн. осадки} 10/3 1000 м
[Cu med, cong Cs]
+20.5 +15.6 73 +24 +33 комфорт 1004.1 943.6
06 14.08 З 1 50 км {ливн. осадки} 10/3 1000 м
[Cb cap Ci ing]
+25.1 +14.0 50 +27 +33 жарко 1001.4 941.9
09 14.08 штиль 0 50 км 10/4 1000 м
[Sc diur, vesp Ac cuf Ci ing]
+24.0 +14.4 55 +27 +27 жарко 1002.3 942.6
12 14.08 штиль 0 50 км 9/3 1000 м
[Sc diur, vesp Ac trans Ci fib]
+18.6 +16.3 86 +19 +19 1003.9 943.1 +25.7 0.4
15 14.08 штиль 0 50 км 9/3 1000 м
[Sc diur, vesp Ac trans Ci fib]
+15.4 +14.3 93 +15 +15 1005.5 943.9
18 14.08 штиль 0 50 км 10/4 1000 м
[Sc diur, vesp Ac trans]
+14.0 +13.3 96 +14 +14 1006.2 944.3
21 14.08 В 1 50 км 9/8 200 м
[St Ac trans]
+13.8 +12.8 94 +14 +14 1006.9 944.8
00 15.08 СВ 1 50 км 10/3 1000 м
[Cb cap Ac trans]
+16.8 +14.0 84 +18 +20 1006.2 944.8 +13.0
03 15.08 В 5 50 км 10/4 1000 м
[Cb cap Ci]
+23.8 +15.9 61 +27 +30 жарко 1003.5 943.7
06 15.08 ЮВ 2 50 км 5/5 600 м
[Cb cap Ci ing]
+23.7 +15.2 59 +27 +31 жарко 1002.7 943.0
09 15.08 СВ 2 50 км 6/6 600 м
[Cb cap]
+17.4 +13.3 77 +18 +18 1005.9 944.6
12 15.08 В 2 50 км 10/4 1000 м
[Sc diur, vesp Ac und]
+14.8 +11.8 82 +14 +14 1007.4 945.5 +26.0
15 15.08 З 1 50 км ясно +13.2 +11.7 91 +13 +13 1008.2 945.9
18 15.08 штиль 0 50 км 8/3 1000 м
[Sc Ac lent Ci fib]
+11.2 +9.6 90 +11 +11 1008.5 945.7
21 15.08 ЮЗ 1 50 км 9/3 600 м
[Cb cap Ac As]
+11.9 +10.6 92 +12 +12 1008.3 945.7
00 16.08 СВ 4 50 км 10/10 1000 м
[Cb cap]
+18.0 +12.4 70 +18 +18 1005.9 944.8 +10.4
03 16.08 СВ 5
{11}
50 км 10/6 1000 м
[Cb cap Cs]
+20.1 +9.2 49 +21 +23 комфорт 1005.0 944.3
06 16.08 СВ 5-11
{11}
10 км слаб. ливневой дождь 10/5 1000 м
[Cb cap As op]
+19.4 +9.2 52 +20 +20 1004.2 943.4
09 16.08 В 6-11
{13}
10 км слаб. ливневой дождь 10/10 1000 м
[Cb cap]
+16.8 +10.0 64 +16 +16 1005.2 943.7
12 16.08 СВ 5
{10}
10 км слаб. ливневой дождь 10/10 1000 м
[Cb cap]
+14.9 +12.5 86 +13 +13 1005.0 943.3 +20.6 0.0
15 16.08 СВ 6-13
{13}
10 км слаб. ливневой дождь 10/10 600 м
[Cb cap]
+13.2 +10.0 81 +11 +11 1004.3 942.3
18 16.08 СВ 7-12
{13}
10 км слаб. ливневой дождь 10/10 600 м
[Cb cap]
+12.8 +9.8 82 +10 +10 1002.4 940.4
21 16.08 СВ 5
{13}
4000 м слаб. дождь 10/10 100 м
[Frnb Ns]
+12.3 +9.7 84 +10 +10 1002.8 940.7
00 17.08 СВ 5
{10}
50 км {ливн. осадки, дождь} 10/10 600 м
[Cb cap]
+12.4 +8.6 78 +10 +10 1003.2 941.0 +11.6 18
03 17.08 В 6-10
{12}
10 км слаб. ливневой дождь 10/10 200 м
[Cb cap]
+11.3 +8.1 81 +8 +8 1004.4 942.0 +11.1
06 17.08 СВ 5
{10}
10 км слаб. ливневой дождь 10/10 200 м
[Cb cap]
+10.9 +8.2 83 +8 +8 1005.1 942.5
09 17.08 СВ 4
{10}
10 км слаб. дождь 10/10 200 м
[Frnb Ns]
+9.5 +6.6 82 +7 +7 1006.2 943.3
12 17.08 СВ 4
{10}
10 км слаб. дождь 10/10 200 м
[Frnb Ns]
+8.4 +5.3 81 +5 +5 1007.5 944.2 +12.4 8
15 17.08 В 2 10 км слаб. дождь 10/10 200 м
[Frnb Ns]
+7.7 +6.3 91 +6 +6 1007.2 943.8
18 17.08 В 2 10 км слаб. дождь 10/10 200 м
[Frnb Ns]
+8.0 +6.1 88 +6 +6 1007.0 943.6
21 17.08 В 2 10 км слаб. ливневой дождь 9/9 600 м
[Cb cap]
+8.1 +6.2 88 +6 +6 1007.0 943.6
00 18.08 ЮВ 1 50 км {ливн. осадки, дождь} 10/9 600 м
[Cb cap Ac lent]
+10.8 +7.6 81 +11 +11 1006.7 944.0 +7.5 4
03 18.08 СВ 4 50 км {ливн. осадки} 10/10 600 м
[Cb cap]
+12.6 +8.2 75 +11 +11 1006.6 944.3
06 18.08 В 2 10 км слаб. дождь 10/10 300 м
[Frnb Ns]
+12.8 +9.8 82 +12 +12 1006.9 944.6
09 18.08 В 3 50 км {дождь} 10/9 600 м
[Sc Ac As]
+13.2 +8.9 75 +12 +12 1006.9 944.7
12 18.08 В 1 50 км {дождь} 10/10 600 м
[Sc]
+11.4 +8.6 83 +11 +11 1008.6 945.9 +13.2 1
15 18.08 ЮЗ 1 10 км слаб. ливневой дождь 10/10 600 м
[Cb cap]
+10.9 +9.0 88 +11 +11 1009.6 946.7
18 18.08 штиль 0 4000 м ливневой дождь 10/10 600 м
[Cb cap]
+9.7 +8.6 93 +9 +9 1010.2 947.0
21 18.08 СВ 1 50 км {ливн. осадки} 10/10 200 м
[Cb cap]
+9.7 +8.8 94 +9 +9 1010.9 947.7
00 19.08 В 1 50 км {ливн. осадки} 10/10 200 м
[Cb cap]
+11.4 +10.2 92 +11 +11 1011.0 948.2 +9.6 5
03 19.08 штиль 0 10 км слаб. ливневой дождь 10/10 200 м
[Cb cap]
+13.1 +11.4 89 +13 +13 1010.6 948.2
06 19.08 В 1 10 км слаб. ливневой дождь 10/10 300 м
[Cb cap]
+14.3 +12.8 91 +15 +15 1010.3 948.2
09 19.08 В 2 10 км слаб. ливневой дождь 10/10 200 м
[Cb cap]
+13.8 +12.9 94 +13 +13 1010.9 948.6
12 19.08 В 2 10 км слаб. морось 10/10 200 м
[Cb cap]
+13.0 +12.1 94 +12 +12 1012.1 949.6 +14.3 6
15 19.08 В 2 50 км {морось} 10/10 200 м
[Cb cap]
+12.3 +11.3 94 +11 +11 1012.7 950.0
18 19.08 СВ 2 50 км {морось} 10/10 200 м
[Cb cap]
+11.8 +11.0 95 +11 +11 1013.3 950.4
21 19.08 В 1 50 км 10/10 300 м
[Frnb Ac und]
+11.5 +10.6 94 +11 +11 1013.4 950.5
00 20.08 СВ 2 50 км 10/8 200 м
[St Ac trans]
+14.4 +11.7 84 +14 +15 1012.6 950.3 +11.5
03 20.08 В 2 50 км 10/4 600 м
[Cb cap Ac trans Ci fib]
+19.4 +12.4 64 +21 +25 комфорт 1010.8 949.7
06 20.08 СЗ 2 50 км {ливн. осадки} 10/9 600 м
[Cb cap Ci fib]
+18.5 +14.0 75 +20 +20 1010.3 949.0
09 20.08 штиль 0 10 км слаб. ливневой дождь 10/10 600 м
[Cb cap]
+14.2 +13.4 95 +14 +14 1012.1 949.9

 

Местоположение метеостанции Экимчан (Амурская область, Россия): широта 53.08 долгота 132.90 высота над уровнем моря 541 м.

В архиве по умолчанию представлена погода в Экимчане за последнюю неделю. Архивные данные за месяц целиком и за предыдущие месяцы, начиная с января 2011 года, Вы можете получить, выбрав интересующий диапазон дат из раскрывающегося списка и нажав кнопку "Ввод!".


*Определитесь, кто Вы:
робот инопланетянин человек

Внимание! Время в таблицах - всемирное. Для получения местного времени необходимо прибавить поправку, которая равна 9 ч.

Смотрите также архив погоды в соседних городах и на ближайших метеорологических станциях:

Погода в Стойбе (Амурская область, Россия) (86 км)
Погода в Софийском Прииске (Хабаровский край, Россия) (113 км)
Погода в Февральске (Амурская область, Россия) (158 км)
Погода в Усть-Умальте (Хабаровский край, Россия) (163 км)
Погода в Удском (Хабаровский край, Россия) (186 км)
Погода в Дугде (Амурская область, Россия) (195 км)
Погода в Бурукане (Хабаровский край, Россия) (207 км)
Погода в Чегдомыне (Хабаровский край, Россия) (212 км)
Погода в Веселой Горке (Хабаровский край, Россия) (214 км)
Погода в Норске (Амурская область, Россия) (218 км)

Пояснения к столбцам:

Ветер - указаны скорость ветра в м/с - средняя за 10 мин, порывы в срок и между сроками (в фигурных скобках) и направление, откуда дует ветер: С - северный, СВ - северо-восточный, В - восточный, ЮВ - юго-восточный, Ю - южный, ЮЗ - юго-западный, З - западный, СЗ - северо-западный.
Видимость - горизонтальная дальность видимости в метрах или километрах. При видимости от 1 до 10 км при отсутствии осадков обычно наблюдается дымка, при ухудшении видимости до 1 км и менее - туман. В сухую погоду видимость может ухудшаться дымом, пылью или мглою.
Явления - указаны атмосферные явления, наблюдавшиеся в срок или в последний час перед сроком; фигурными скобками обозначены явления, наблюдавшиеся между сроками (за 1-3 часа до срока); квадратными скобками обозначены град или гололедные отложения с указанием их диаметра в мм.
Облачность - указаны через наклонную черту общая и нижняя облачность в баллах и высота нижней границы облаков в метрах; квадратными скобками обозначены формы облаков: Ci - перистые, Cs - перисто-слоистые, Cc - перисто-кучевые, Ac - высококучевые, As - высокослоистые, Sc - слоисто-кучевые, Ns - слоисто-дождевые, Cu - кучевые, Cb - кучево-дождевые. Подробнее классификацию облаков см. в Атласе облаков (PDF).
T - Температура воздуха - температура, измеренная на высоте 2 м над землей.
Td - Температура точки росы - температура, при понижении до которой содержащийся в воздухе водяной пар достигнет насыщения.
f - Относительная влажность воздуха - влажноcть воздуха, измеренная на высоте 2 м над землей.
Te - Эффективная температура - температура, которую ощущает одетый по сезону человек в тени. Характеристика душности погоды. При расчете учитывается влияние влажности воздуха и скорости ветра на теплоощущения человека.
Tes - Эффективная температура на солнце - температура, которую ощущает человек, с поправкой на солнечный нагрев. Характеристика знойности погоды. Зависит от высоты солнца над горизонтом, облачности и скорости ветра. Ночью, в пасмурную погоду, а также при ветре 12 м/с и более поправка равна нулю.
P - Атмосферное давление - приведенное к уровню моря атмосферное давление.
Po - Атмосферное давление - измеренное на уровне метеостанции атмосферное давление.
Tmin - Минимальная температура - минимум температуры воздуха на высоте 2 м над землей.
Tmax - Максимальная температура - максимум температуры воздуха на высоте 2 м над землей.
R - Количество осадков - Количество выпавших осадков за период времени, мм. При наведении курсора мыши на число - период времени, за который выпало указанное количество осадков.
R24 - Количество осадков - Количество выпавших осадков за 24 часа, мм.
S - Снежный покров - Высота снежного покрова, см. При наведении курсора мыши на число - состояние снежного покрова и степень покрытия местности в баллах.